{"data":{"norad_id":67446,"intl_designator":"2026-008B","name":"STARLINK-36539","alt_names":[],"object_type":"PAYLOAD","status":"ACTIVE","operator":null,"country":"US","launch_date":"2026-01-14","launch_site_code":"AFETR","launch_vehicle":null,"mission":null,"orbit_class":"UNKNOWN","rcs_meters":null,"size_class":null,"mass_kg":null,"dimensions":null,"purposes":["comms"],"wikipedia_slug":null,"has_3d_model":false,"image_url":null,"decayed_at":null,"tle_current":{"epoch":"2026-05-24T10:50:16.499904Z","epoch_age_seconds":132583,"freshness":"FRESH","line1":"1 67446U 26008B   26144.45157986  .00012751  00000+0  47191-3 0  9995","line2":"2 67446  43.0010 137.8305 0001421 273.7985  86.2704 15.27592765 21158","mean_motion":15.27592765,"eccentricity":0.0001421,"inclination_deg":43.001,"raan_deg":137.8305,"arg_perigee_deg":273.7985,"mean_anomaly_deg":86.2704,"bstar":0.00047191,"rev_number":2115,"period_min":94.265960993865,"perigee_km":482.03590419084,"apogee_km":483.98584241643,"semimajor_km":6861.1478733036,"source":"CELESTRAK","updated_at":"2026-05-25T13:38:21.559245Z"}}}